Location: Nelson
(47.1935°N, 121.0537°W)
Time: 12:24:58
(UTC+00:00)

BlueWalker 3 - Pass Details

Date: 03 December 2022
Orbit: 499 x 517 km, 53.2° (Epoch: 01 February)

Event Time Altitude Azimuth Distance (km) Brightness Sun altitude
Rises 03:10:51 0° 296° (WNW) 2,625 6.5 -28.9°
Reaches altitude 10° 03:13:07 10° 303° (WNW) 1,734 5.3 -29.3°
Enters shadow 03:14:26 19° 311° (NW) 1,252 4.4 -29.5°
